Regional Weather Roundup
Issued by NWS Austin/San Antonio, TX

Home | Current Version | Previous Version | Text Only | Print | Product List | Glossary On
Versions: 1 2 3 4 5 6 7 8 9 10 11 12 13 14 15 16 17 18 19 20 21 22 23 24 25 26 27 28 29 30 31 32 33 34 35 36 37 38 39 40 41 42 43 44 45 46 47 48 49 50
000
ASUS44 KEWX 200510
RWREWX
SOUTH TEXAS REGIONAL WEATHER ROUNDUP
NATIONAL WEATHER SERVICE AUSTIN/SAN ANTONIO TX
1200 AM CDT WED SEP 20 2017

NOTE: "FAIR" INDICATED FEW OR NO CLOUDS BELOW 12,000 FEET WITH NO
SIGNIFICANT WEATHER AND/OR OBSTRUCTIONS TO VISIBILITY.

* - THESE STATIONS ARE NOT NWS OR FAA STATIONS...AND ARE NOT SUBJECT
    TO NWS AND FAA QUALITY CONTROL.

TXZ171-172-183>190-200600-
TEXAS HILL COUNTRY AND EDWARDS PLATEAU

CITY           SKY/WX    TMP DP  RH WIND       PRES   REMARKS
JUNCTION       CLEAR     71  69  93 CALM      29.90S
*LLANO         CLEAR     73  72  94 CALM      29.91R
BURNET         CLEAR     81  71  71 S6        29.92R
*HORSESHOE BAY CLEAR     81  71  73 S10G22    29.87R
*KERRVILLE     PTCLDY    79  73  80 S9        29.93R
*FREDERICKSBRG CLEAR     78  68  71 S7        29.93R
*ROCKSPRINGS   NOT AVBL
*BOERNE STAGE  CLOUDY    77  70  78 S7        29.94R
*CASTROVILLE   CLOUDY    81  69  67 SE7       29.91S
HONDO          PTCLDY    83  73  72 SE9       29.89R
*UVALDE        PTCLDY    73  69  86 NE8       29.89R
DEL RIO        CLEAR     76  67  73 SE5       29.86R
LAUGHLIN AFB   NOT AVBL
CARRIZO SPRGS  MOCLDY    75  70  83 E3        29.84R
*EAGLE PASS    PTCLDY    75  66  73 CALM      29.85S
$$

TXZ173-191>194-202-209-217>225-228-200600-
CENTRAL AND SOUTH CENTRAL TEXAS

CITY           SKY/WX    TMP DP  RH WIND       PRES   REMARKS
GEORGETOWN     MOCLDY    81  72  74 S9        29.90R
AUSTIN/BERGSTM MOCLDY    80  73  79 S12       29.87R
AUSTIN/MABRY   MOCLDY    80  73  79 VRB7      29.89R
*AUSTIN/EXEC   CLOUDY    79  72  78 S7        29.90R
*LAGO VISTA    MOCLDY    80  73  79 S5        29.91R
SAN MARCOS     MOCLDY    79  74  84 S8        29.90R
NEW BRAUNFELS  CLOUDY    80  73  79 S10       29.89R
RANDOLPH AFB   CLOUDY    78  76  95 S8        29.91R
PT SAN ANTONIO CLOUDY    81  73  77 SE9       29.88R
SAN ANTONIO    CLOUDY    80  72  76 SE12      29.91R
STINSON FIELD  CLOUDY    82  74  76 SE7       29.87R
*LA GRANGE     CLOUDY    80  77  90 S8        29.87R
*GIDDINGS      CLOUDY    78  73  83 S7        29.89R
*GONZALES      CLOUDY    79  78  95 SE9       29.88S
$$

TXZ163>164-176>182-195>201-210>213-226-227-235-200600-
SOUTHEAST TEXAS

CITY           SKY/WX    TMP DP  RH WIND       PRES   REMARKS
COLLEGE STN    CLOUDY    81  74  79 SE10      29.88R
*BRYAN         CLOUDY    79  73  81 S6G16     29.90R
*CALDWELL      CLOUDY    79  73  81 S10       29.89R
*CROCKETT      CLOUDY    77  75  94 S7        29.93S
*BRENHAM       CLOUDY    80  75  85 SE7       29.88S
HUNTSVILLE     MOCLDY    80  73  79 VRB5      29.90S
CONROE         CLOUDY    77  74  90 SE6       29.90F
HOUSTON BUSH   CLOUDY    80  76  87 S5        29.90S
HOUSTON HOBBY  MOCLDY    81  76  84 S6        29.89F
*HOUSTON SW AP PTCLDY    75  74  96 CALM      29.91S
PEARLAND       PTCLDY    82  76  81 SE5       29.91F
HOUSTON HOOKS  PTCLDY    80  75  84 S3        29.90S
ELLINGTON FLD  MOCLDY    81  75  83 SE6       29.90F
SUGAR LAND     PTCLDY    80  76  87 SE8       29.89F
*HOUSTON EXEC  PTCLDY    77  75  94 S7        29.91S FOG
*CLEVELAND MUN PTCLDY    77  75  95 SE3       29.92S FOG
*WHARTON       CLOUDY    77  74  91 SE5       29.89F
*COLUMBUS      FAIR      78  75  91 SW5       29.90R
*EAGLE LAKE    CLOUDY    78  77  98 SE5       29.89S
$$

TXZ214>216-236>238-200600-
THE UPPER TEXAS COAST

CITY           SKY/WX    TMP DP  RH WIND       PRES   REMARKS
*ORANGE        PTCLDY    80  78  95 S3        29.95S
PORT ARTHUR    CLEAR     78  76  93 SE7       29.92S
GALVESTON      MOCLDY    84  78  82 SE17      29.91S HX  95
ANGLETON       CLOUDY    81  76  84 SE5       29.89F
*BAY CITY      CLOUDY    79  77  93 SE3       29.89S
PALACIOS       CLOUDY    80  76  87 SE13      29.87S
$$

TXZ229>234-239>247-200600-
TEXAS COASTAL BEND AND RIO GRANDE PLAINS

CITY           SKY/WX    TMP DP  RH WIND       PRES   REMARKS
VICTORIA       CLOUDY    80  76  87 SE12      29.88R
*BEEVILLE      CLOUDY    81  81 100 S8        29.88R HX  91
ROCKPORT       PTCLDY    83  77  82 SE13G21   29.85S HX  92
*PORT ARANSAS  NOT AVBL
*PORT LAVACA   CLOUDY    79  75  87 SE8       29.88R
*INGLESIDE     PTCLDY    82  79  89 MISG      29.85S HX  93
CORPUS CHRISTI MOCLDY    81  78  91 SE18      29.85S
CORPUS NAS     MOCLDY    84  79  85 SE16      29.85S HX  96
*ROBSTOWN      PTCLDY    81  77  87 SE13      29.86R
ALICE          CLEAR     81  76  84 S15       29.85R
KINGSVILLE NAS MOCLDY    82  80  94 SE16      29.85F HX  94
COTULLA        MOCLDY    82  73  74 SE10      29.85R
*FAITH RANCH   CLEAR     82  70  65 E6        29.84R
LAREDO         MOCLDY    87  71  58 S22       29.84R HX  93
$$

TXZ248>255-200600-
DEEP SOUTH TEXAS

CITY           SKY/WX    TMP DP  RH WIND       PRES   REMARKS
BROWNSVILLE    CLEAR     80  78  94 SE8       29.89F
PORT ISABEL    CLEAR     83  78  85 SE15      29.88F HX  93
*SOUTH PADRE   NOT AVBL
HARLINGEN      CLEAR     80  77  90 SE12      29.86F
*HEBBRONVILLE  PTCLDY    81  72  75 S10G18    29.88S
MCALLEN        PTCLDY    84  76  76 SE15      29.87F HX  93
*WESLACO       CLEAR     82  76  83 S12G17    29.86F
FALFURRIAS     CLEAR    -38  32 100 SE8       29.86S WCI -60
EDINBURG       CLEAR     83  76  79 SE9       29.87S HX  90
*ZAPATA        CLEAR     85  70  60 SE13G18   29.85R
$$

TXZ213>215-236>238-242>244-246-247-251-254-255-200600-
CMAN STATIONS

STATION/POSITION TIME  TEMP    WIND        PRES    WAVE
                       AIR SEA DIR/SP/G            HT/PER
                 (UTC) (F)     (DEG/KT/KT) (MB)    (FT/S)
SABINE PASS      0448   82 85  160/  9/ 12 1015.0
SEA RIM ST PARK  0400   82     160/ 11/ 15 1014.0
NORTH JETTY/GLS  0442      85  150/ 15/ 17 1012.6
EAGLE POINT      0448   83 85  170/ 14/ 16 1013.0
MORGANS POINT    0448   83 83  150/  8/ 11 1012.8
PORT O`CONNOR    0436   83 85  150/ 19/ 22 1010.6
MALAQUITE BEACH  0436   83 86  130/ 19/ 22 1010.6
BAFFIN BAY       0436   83 85  140/ 17/ 21 1011.3
PORT ISABEL      0436   83 86  140/ 16/ 19 1012.1
$$




USA.gov is the U.S. government's official web portal to all federal, state and local government web resources and services.